Starlink 35275

operational
NORAD ID: 65756 Int'l Des: 2025-216 Owner: SPXS Country: US Constellation: starlink
LEOCIRCULAR

关于 Starlink 35275

正在加载描述...

实时位置

正在加载3D地球...

即将过境

高度历史

Altitude vs Time

uPlot chart will show altitude changes over time

两行轨道根数

1 65756U 25216Y 26072.09735195 .00021936 00000-0 75028-3 0 9997
2 65756 53.1573 317.1788 0000783 172.2551 187.8462 15.30212790 27062
Epoch: Mar 13, 2026 • Age: 43 hours

当前状态

高度 492.8 km
速度 7.62 km/s
星下点 -51.10°S, 148.13°E
发射日期 Sep 25, 2025
运行时间 0.4 years
类型 internet

技术详情

分类 Payload
质量 575.00 kg
干质量 530.00 kg
总质量 575.00 kg
长度 0.30 m
直径 4.10 m
跨度 29.00 m
形状 Box + pan
制造商 SPXS
平台类型 Starlink V2MO
阶段状态 In Orbit
所有者/国家 SPXS/US

大型星座

Loading constellations...